Home   Weather   Blackpool   Past weeks
Flag for United Kingdom

Past Weather in Blackpool, England, United Kingdom — Yesterday and Last 2 Weeks

Now
50 °F

Sunny.


Feels Like: 46 °F
Forecast: 57 / 41 °F
Wind: 10 mph from Southwest

Location: Blackpool Airport

Current Time: Apr 6, 2020 at 7:25:50 pm

Latest Report: Apr 6, 2020 at 6:50 pm


Visibility: 10 mi

Pressure: 30.15 "Hg

Humidity: 82%

Dew Point: 45 °F

Location of BlackpoolLocation

Past Weather in Blackpool — Graph

°F

Blackpool Temperature Yesterday

Maximum temperature yesterday: 68 °F (at 4:50 pm)
Minimum temperature yesterday: 45 °F (at 6:20 am)
Average temperature yesterday: 59 °F

High & Low Weather Summary for the Past Weeks

 TemperatureHumidityPressure
High68 °F (Apr 5, 4:50 pm)94% (Apr 2, 10:20 am)30.86 "Hg (Apr 2, 10:20 am)
Low34 °F (Mar 23, 6:20 am)31% (Mar 26, 4:50 pm)29.65 "Hg (Apr 5, 5:20 pm)
Average49 °F67%30.26 "Hg
* Reported Mar 22 5:20 pm — Apr 6 6:20 pm, Blackpool. Weather by CustomWeather, © 2020

Note: Actual official high and low records may vary slightly from our data, if they occured in-between our weather recording intervals... More about our weather records

Blackpool Weather History for the Previous 24 Hours

Scroll right to see more
 ConditionsComfort  
Time TempWeatherWind HumidityBarometerVisibility
6:20 pm
Mon, Apr 6
52 °FSunny.12 mph77%30.15 "Hg10 mi
5:50 pm52 °FSunny.12 mph77%30.12 "Hg10 mi
5:20 pm54 °FSunny.12 mph72%30.12 "Hg10 mi
4:50 pm54 °FSunny.13 mph67%30.12 "Hg10 mi
4:20 pm54 °FSunny.13 mph67%30.09 "Hg10 mi
3:50 pm54 °FSunny.14 mph67%30.09 "Hg10 mi
3:20 pm54 °FSunny.14 mph67%30.07 "Hg10 mi
2:50 pm54 °FSunny.14 mph72%30.07 "Hg10 mi
2:20 pm54 °FPassing clouds.15 mph72%30.04 "HgN/A
1:50 pm54 °FPassing clouds.16 mph72%30.04 "HgN/A
1:20 pm52 °FPassing clouds.17 mph72%30.01 "HgN/A
12:50 pm54 °FPassing clouds.15 mph77%30.01 "HgN/A
12:20 pm52 °FPassing clouds.16 mph82%29.98 "HgN/A
11:50 am52 °FPassing clouds.15 mph88%29.95 "HgN/A
11:20 am52 °FPassing clouds.15 mph88%29.95 "HgN/A
10:50 am52 °FPassing clouds.17 mph88%29.92 "HgN/A
10:20 am52 °FPassing clouds.17 mph88%29.89 "HgN/A
9:50 am52 °FPassing clouds.20 mph82%29.89 "HgN/A
9:20 am50 °FPassing clouds.20 mph88%29.86 "HgN/A
8:50 am50 °FPassing clouds.20 mph88%29.83 "HgN/A
8:20 am50 °FPassing clouds.18 mph88%29.83 "HgN/A
7:50 am48 °FPassing clouds.17 mph87%29.80 "HgN/A
7:20 am48 °FPassing clouds.12 mph87%29.80 "HgN/A
6:50 am48 °FPassing clouds.17 mph87%29.77 "HgN/A
8:50 pm
Sun, Apr 5
63 °FClear.26 mph52%29.65 "Hg10 mi
7:50 pm64 °FSunny.24 mph49%29.65 "Hg10 mi
7:20 pm66 °FSunny.20 mph49%29.65 "Hg10 mi
Weather by CustomWeather, © 2020

See weather overview

Advertising